ITY2068 LIRF-LIML

Flight info

Callsign ITY2068
Flight time 0h 54m
Altitude 34000
Route GILIO DCT KARDU DCT EMBOS DCT GIPIX DCT KALMO
Aircraft A20N/M-SDE2E3FGHIRWXY/LB1

Departure

Time 2026-05-07 22:40
Airport Rome–Fiumicino Leonardo da Vinci International Airport (LIRF)

Arrival

Time 2026-05-07 23:34
Airport Milano Linate Airport (LIML)
Time Latitude Longitude Altitude Speed Heading
2026-05-07 22:17 41.79722 12.25477 19 ft 0 kts 115°
2026-05-07 22:29 41.79723 12.25471 19 ft 2 kts 115°
2026-05-07 22:29 41.79729 12.25454 18 ft 2 kts 115°
2026-05-07 22:29 41.79736 12.25435 18 ft 2 kts 115°
2026-05-07 22:30 41.79740 12.25424 18 ft 1 kts 116°
2026-05-07 22:30 41.79741 12.25415 18 ft 1 kts 57°
2026-05-07 22:30 41.79737 12.25410 18 ft 1 kts 15°
2026-05-07 22:30 41.79731 12.25408 18 ft 0 kts 24°
2026-05-07 22:33 41.79739 12.25413 18 ft 2 kts 24°
2026-05-07 22:33 41.79767 12.25430 18 ft 6 kts 25°
2026-05-07 22:33 41.79812 12.25458 18 ft 7 kts 25°
2026-05-07 22:34 41.79870 12.25493 18 ft 10 kts 24°
2026-05-07 22:34 41.79939 12.25535 17 ft 11 kts 24°
2026-05-07 22:34 41.79994 12.25605 17 ft 12 kts 97°
2026-05-07 22:34 41.79960 12.25715 18 ft 12 kts 118°
2026-05-07 22:35 41.79925 12.25825 19 ft 13 kts 94°
2026-05-07 22:35 41.79980 12.25891 18 ft 13 kts 25°
2026-05-07 22:35 41.80068 12.25944 17 ft 14 kts 24°
2026-05-07 22:35 41.80165 12.26001 17 ft 15 kts 23°
2026-05-07 22:36 41.80267 12.26060 16 ft 16 kts 26°
2026-05-07 22:36 41.80370 12.26126 16 ft 16 kts 26°
2026-05-07 22:36 41.80480 12.26187 15 ft 17 kts 25°
2026-05-07 22:36 41.80545 12.26313 15 ft 17 kts 69°
2026-05-07 22:37 41.80590 12.26468 14 ft 18 kts 68°
2026-05-07 22:37 41.80640 12.26626 13 ft 18 kts 67°
2026-05-07 22:37 41.80682 12.26794 12 ft 19 kts 71°
2026-05-07 22:37 41.80726 12.26960 11 ft 15 kts 68°
2026-05-07 22:38 41.80775 12.27042 11 ft 10 kts
2026-05-07 22:38 41.80851 12.27018 11 ft 11 kts 340°
2026-05-07 22:38 41.80930 12.26979 11 ft 12 kts 339°
2026-05-07 22:38 41.80956 12.26927 11 ft 6 kts 260°
2026-05-07 22:39 41.80939 12.26862 12 ft 7 kts 249°
2026-05-07 22:39 41.80918 12.26789 12 ft 10 kts 249°
2026-05-07 22:39 41.80810 12.26401 14 ft 85 kts 251°
2026-05-07 22:39 41.80519 12.25335 16 ft 155 kts 250°
2026-05-07 22:40 41.80144 12.23940 645 ft 161 kts 253°
2026-05-07 22:40 41.79835 12.22513 1357 ft 166 kts 253°
2026-05-07 22:40 41.79437 12.21068 2088 ft 170 kts 256°
2026-05-07 22:40 41.79303 12.19455 2598 ft 183 kts 269°
2026-05-07 22:41 41.79253 12.17669 2971 ft 207 kts 270°
2026-05-07 22:41 41.79229 12.15636 3405 ft 230 kts 270°
2026-05-07 22:41 41.79195 12.13392 3902 ft 253 kts 268°
2026-05-07 22:41 41.79079 12.10963 4573 ft 270 kts 267°
2026-05-07 22:42 41.79013 12.08458 5422 ft 277 kts 269°
2026-05-07 22:42 41.79012 12.05881 6393 ft 279 kts 269°
2026-05-07 22:42 41.79020 12.03269 7335 ft 284 kts 269°
2026-05-07 22:42 41.79024 12.00670 8240 ft 287 kts 269°
2026-05-07 22:43 41.79020 11.97966 9148 ft 292 kts 268°
2026-05-07 22:43 41.79013 11.95315 9968 ft 295 kts 268°
2026-05-07 22:43 41.79004 11.92507 10689 ft 306 kts 268°
2026-05-07 22:43 41.78993 11.89610 11258 ft 319 kts 268°
2026-05-07 22:44 41.79004 11.86642 12052 ft 324 kts 272°
2026-05-07 22:44 41.79413 11.83691 12890 ft 328 kts 287°
2026-05-07 22:44 41.80370 11.80890 13721 ft 332 kts 299°
2026-05-07 22:44 41.81549 11.78232 14499 ft 336 kts 301°
2026-05-07 22:45 41.82770 11.75567 15287 ft 339 kts 300°
2026-05-07 22:45 41.83986 11.72889 16062 ft 342 kts 300°
2026-05-07 22:45 41.85206 11.70169 16817 ft 345 kts 300°
2026-05-07 22:45 41.86432 11.67409 17527 ft 347 kts 299°
2026-05-07 22:46 41.87658 11.64639 18212 ft 351 kts 299°
2026-05-07 22:46 41.88929 11.61809 18905 ft 354 kts 301°
2026-05-07 22:46 41.90349 11.59102 19587 ft 358 kts 306°
2026-05-07 22:46 41.91954 11.56556 20264 ft 362 kts 310°
2026-05-07 22:47 41.93657 11.54122 20907 ft 365 kts 311°
2026-05-07 22:47 41.95417 11.51644 21542 ft 368 kts 311°
2026-05-07 22:47 41.97202 11.49132 22177 ft 372 kts 311°
2026-05-07 22:47 41.98984 11.46618 22792 ft 375 kts 310°
2026-05-07 22:48 42.00780 11.44074 23406 ft 378 kts 310°
2026-05-07 22:48 42.02577 11.41526 24024 ft 381 kts 310°
2026-05-07 22:48 42.04392 11.38947 24639 ft 384 kts 310°
2026-05-07 22:48 42.06235 11.36325 25238 ft 386 kts 310°
2026-05-07 22:49 42.08065 11.33720 25816 ft 389 kts 309°
2026-05-07 22:49 42.09937 11.31048 26387 ft 392 kts 309°
2026-05-07 22:49 42.11791 11.28402 26937 ft 394 kts 309°
2026-05-07 22:49 42.13683 11.25701 27466 ft 395 kts 309°
2026-05-07 22:50 42.15564 11.23013 27963 ft 398 kts 309°
2026-05-07 22:50 42.17459 11.20302 28453 ft 400 kts 308°
2026-05-07 22:50 42.19364 11.17568 28923 ft 403 kts 309°
2026-05-07 22:50 42.21290 11.14808 29365 ft 405 kts 308°
2026-05-07 22:51 42.23213 11.12047 29782 ft 406 kts 308°
2026-05-07 22:51 42.25132 11.09287 30204 ft 408 kts 308°
2026-05-07 22:51 42.27072 11.06495 30742 ft 407 kts 308°
2026-05-07 22:51 42.28999 11.03725 31296 ft 404 kts 308°
2026-05-07 22:52 42.30904 11.00982 31790 ft 403 kts 308°
2026-05-07 22:52 42.32885 10.98283 32252 ft 405 kts 311°
2026-05-07 22:52 42.34987 10.95740 32677 ft 407 kts 314°
2026-05-07 22:52 42.37184 10.93388 33056 ft 411 kts 317°
2026-05-07 22:53 42.39565 10.91145 33390 ft 415 kts 321°
2026-05-07 22:53 42.42025 10.89128 33707 ft 420 kts 324°
2026-05-07 22:53 42.44630 10.87266 33967 ft 424 kts 327°
2026-05-07 22:54 42.49893 10.83732 33971 ft 424 kts 327°
2026-05-07 22:54 42.55187 10.80189 33972 ft 424 kts 327°
2026-05-07 22:55 42.60437 10.76653 33975 ft 424 kts 327°
2026-05-07 22:55 42.65695 10.73099 33975 ft 423 kts 327°
2026-05-07 22:56 42.70945 10.69544 33974 ft 423 kts 327°
2026-05-07 22:56 42.76215 10.65966 33973 ft 423 kts 327°
2026-05-07 22:57 42.81477 10.62386 33979 ft 423 kts 327°
2026-05-07 22:57 42.86702 10.58823 33973 ft 423 kts 327°
2026-05-07 22:58 42.91976 10.55222 33977 ft 423 kts 327°
2026-05-07 22:58 42.97401 10.52048 33979 ft 428 kts 334°
2026-05-07 22:59 43.03136 10.49759 33973 ft 435 kts 341°
2026-05-07 22:59 43.09065 10.48157 33980 ft 435 kts 343°
2026-05-07 23:00 43.14997 10.46625 33984 ft 434 kts 343°
2026-05-07 23:00 43.20911 10.45077 33981 ft 433 kts 343°
2026-05-07 23:01 43.26826 10.43518 33977 ft 433 kts 343°
2026-05-07 23:01 43.32768 10.41947 33981 ft 434 kts 343°
2026-05-07 23:02 43.38662 10.40389 33982 ft 433 kts 343°
2026-05-07 23:02 43.44539 10.38831 33984 ft 430 kts 342°
2026-05-07 23:03 43.50395 10.37270 33986 ft 428 kts 342°
2026-05-07 23:03 43.56203 10.35718 33993 ft 428 kts 342°
2026-05-07 23:04 43.62037 10.34155 33994 ft 428 kts 342°
2026-05-07 23:04 43.67872 10.32588 33999 ft 428 kts 341°
2026-05-07 23:05 43.73702 10.31016 33967 ft 428 kts 342°
2026-05-07 23:05 43.76603 10.30235 33431 ft 430 kts 342°
2026-05-07 23:05 43.79572 10.29405 32401 ft 436 kts 340°
2026-05-07 23:05 43.82503 10.28331 31499 ft 436 kts 336°
2026-05-07 23:06 43.85336 10.26971 30718 ft 434 kts 332°
2026-05-07 23:06 43.88071 10.25324 30000 ft 429 kts 328°
2026-05-07 23:06 43.90740 10.23526 29270 ft 430 kts 328°
2026-05-07 23:06 43.93404 10.21683 28564 ft 429 kts 328°
2026-05-07 23:07 43.96081 10.19832 28046 ft 424 kts 328°
2026-05-07 23:07 43.98706 10.18026 27445 ft 422 kts 329°
2026-05-07 23:07 44.01303 10.16245 26870 ft 419 kts 329°
2026-05-07 23:07 44.03876 10.14435 26351 ft 412 kts 325°
2026-05-07 23:08 44.06153 10.12141 25845 ft 401 kts 314°
2026-05-07 23:08 44.08001 10.09318 25339 ft 392 kts 303°
2026-05-07 23:08 44.09551 10.06237 24865 ft 386 kts 301°
2026-05-07 23:08 44.11024 10.03188 24387 ft 382 kts 301°
2026-05-07 23:09 44.12500 10.00123 23920 ft 379 kts 301°
2026-05-07 23:09 44.13946 9.97131 23457 ft 375 kts 302°
2026-05-07 23:09 44.15406 9.94124 23003 ft 372 kts 302°
2026-05-07 23:09 44.16845 9.91161 22549 ft 369 kts 302°
2026-05-07 23:10 44.18269 9.88230 22094 ft 366 kts 302°
2026-05-07 23:10 44.19685 9.85313 21644 ft 362 kts 302°
2026-05-07 23:10 44.21085 9.82426 21196 ft 358 kts 302°
2026-05-07 23:10 44.22469 9.79565 20750 ft 356 kts 302°
2026-05-07 23:11 44.23842 9.76725 20322 ft 353 kts 302°
2026-05-07 23:11 44.25198 9.73920 19885 ft 351 kts 302°
2026-05-07 23:11 44.26544 9.71130 19462 ft 349 kts 302°
2026-05-07 23:11 44.27889 9.68341 19018 ft 347 kts 302°
2026-05-07 23:12 44.29239 9.65543 18574 ft 345 kts 302°
2026-05-07 23:12 44.30551 9.62822 18151 ft 342 kts 303°
2026-05-07 23:12 44.32048 9.60201 17719 ft 342 kts 313°
2026-05-07 23:12 44.33852 9.58071 17294 ft 341 kts 324°
2026-05-07 23:13 44.35841 9.56344 16871 ft 340 kts 328°
2026-05-07 23:13 44.37897 9.54680 16459 ft 338 kts 329°
2026-05-07 23:13 44.39911 9.53061 16055 ft 336 kts 329°
2026-05-07 23:13 44.41937 9.51419 15649 ft 335 kts 329°
2026-05-07 23:14 44.43934 9.49789 15245 ft 333 kts 328°
2026-05-07 23:14 44.45916 9.48162 14839 ft 332 kts 329°
2026-05-07 23:14 44.47905 9.46526 14468 ft 329 kts 329°
2026-05-07 23:14 44.49853 9.44921 14233 ft 320 kts 329°
2026-05-07 23:15 44.51711 9.43389 14071 ft 311 kts 329°
2026-05-07 23:15 44.53568 9.41853 13702 ft 307 kts 329°
2026-05-07 23:15 44.55411 9.40327 13342 ft 304 kts 329°
2026-05-07 23:15 44.57199 9.38846 12992 ft 300 kts 329°
2026-05-07 23:16 44.59027 9.37429 12628 ft 299 kts 336°
2026-05-07 23:16 44.60999 9.36597 12273 ft 296 kts 351°
2026-05-07 23:16 44.63038 9.36303 11929 ft 295 kts 356°
2026-05-07 23:16 44.65071 9.36128 11584 ft 293 kts 357°
2026-05-07 23:17 44.67086 9.35961 11259 ft 291 kts 357°
2026-05-07 23:17 44.69066 9.35782 11106 ft 281 kts 356°
2026-05-07 23:17 44.70995 9.35598 11012 ft 269 kts 356°
2026-05-07 23:17 44.72840 9.35415 11003 ft 271 kts 356°
2026-05-07 23:18 44.74746 9.35223 11015 ft 273 kts 356°
2026-05-07 23:18 44.76630 9.35034 11019 ft 273 kts 356°
2026-05-07 23:18 44.78530 9.34843 11019 ft 273 kts 355°
2026-05-07 23:18 44.80413 9.34798 11007 ft 274 kts 10°
2026-05-07 23:19 44.82114 9.35936 11012 ft 273 kts 44°
2026-05-07 23:19 44.83128 9.38130 11021 ft 273 kts 74°
2026-05-07 23:19 44.83370 9.40787 11032 ft 272 kts 88°
2026-05-07 23:19 44.83454 9.43419 11025 ft 271 kts 87°
2026-05-07 23:20 44.83558 9.46071 11022 ft 271 kts 86°
2026-05-07 23:20 44.83897 9.48644 11014 ft 271 kts 71°
2026-05-07 23:20 44.84712 9.51039 11020 ft 272 kts 60°
2026-05-07 23:20 44.85692 9.53338 11023 ft 272 kts 58°
2026-05-07 23:21 44.86682 9.55603 11022 ft 272 kts 58°
2026-05-07 23:21 44.87670 9.57886 11014 ft 273 kts 59°
2026-05-07 23:21 44.88651 9.60133 11000 ft 268 kts 54°
2026-05-07 23:21 44.90003 9.61765 10978 ft 253 kts 19°
2026-05-07 23:22 44.91716 9.62014 11017 ft 251 kts 353°
2026-05-07 23:22 44.93450 9.61706 11020 ft 251 kts 352°
2026-05-07 23:22 44.95193 9.61409 10917 ft 252 kts 353°
2026-05-07 23:22 44.96934 9.61130 10583 ft 253 kts 348°
2026-05-07 23:23 44.98485 9.60067 10224 ft 251 kts 312°
2026-05-07 23:23 44.99269 9.57945 9908 ft 247 kts 277°
2026-05-07 23:23 44.99225 9.55569 9628 ft 244 kts 262°
2026-05-07 23:23 44.99033 9.53203 9347 ft 243 kts 263°
2026-05-07 23:24 44.98867 9.50828 9056 ft 242 kts 264°
2026-05-07 23:24 44.98724 9.48480 8780 ft 242 kts 265°
2026-05-07 23:24 44.98591 9.46102 8496 ft 241 kts 265°
2026-05-07 23:24 44.98464 9.43777 8225 ft 240 kts 265°
2026-05-07 23:25 44.98336 9.41416 7951 ft 240 kts 265°
2026-05-07 23:25 44.98211 9.39084 7684 ft 239 kts 265°
2026-05-07 23:25 44.98087 9.36749 7418 ft 239 kts 266°
2026-05-07 23:25 44.98241 9.34445 7087 ft 238 kts 296°
2026-05-07 23:26 44.99311 9.32749 6805 ft 233 kts 335°
2026-05-07 23:26 45.00858 9.32235 6544 ft 229 kts 360°
2026-05-07 23:26 45.02437 9.32162 6287 ft 228 kts 359°
2026-05-07 23:26 45.04012 9.32054 6027 ft 227 kts 358°
2026-05-07 23:27 45.07151 9.31759 5500 ft 225 kts 357°
2026-05-07 23:27 45.08714 9.31595 5242 ft 224 kts 357°
2026-05-07 23:27 45.10272 9.31428 4984 ft 223 kts 357°
2026-05-07 23:28 45.11767 9.31267 4736 ft 222 kts 357°
2026-05-07 23:28 45.13351 9.31094 4472 ft 221 kts 357°
2026-05-07 23:28 45.14868 9.30928 4218 ft 220 kts 358°
2026-05-07 23:28 45.16387 9.30762 3957 ft 219 kts 358°
2026-05-07 23:29 45.17909 9.30596 3701 ft 217 kts 358°
2026-05-07 23:29 45.19408 9.30433 3442 ft 215 kts 358°
2026-05-07 23:29 45.20889 9.30272 3190 ft 213 kts 358°
2026-05-07 23:29 45.22360 9.30113 3030 ft 210 kts 358°
2026-05-07 23:30 45.23823 9.29956 3028 ft 211 kts 358°
2026-05-07 23:30 45.25293 9.29797 3027 ft 213 kts 358°
2026-05-07 23:30 45.26775 9.29637 3022 ft 213 kts 358°
2026-05-07 23:30 45.28254 9.29478 3026 ft 213 kts 357°
2026-05-07 23:31 45.29734 9.29319 3026 ft 213 kts 357°
2026-05-07 23:31 45.31208 9.29161 3025 ft 213 kts 357°
2026-05-07 23:31 45.32697 9.29001 2700 ft 218 kts 357°
2026-05-07 23:31 45.34190 9.28836 2254 ft 212 kts 357°
2026-05-07 23:32 45.35637 9.28655 1810 ft 205 kts 356°
2026-05-07 23:32 45.37014 9.28510 1538 ft 190 kts 358°
2026-05-07 23:32 45.38256 9.28411 1436 ft 175 kts 357°
2026-05-07 23:32 45.39457 9.28278 1125 ft 167 kts 354°
2026-05-07 23:33 45.40566 9.28125 913 ft 154 kts 356°
2026-05-07 23:33 45.41584 9.28017 727 ft 141 kts 356°
2026-05-07 23:33 45.42554 9.27910 544 ft 138 kts 355°
2026-05-07 23:33 45.43507 9.27813 373 ft 136 kts 355°
2026-05-07 23:34 45.44386 9.27721 353 ft 107 kts 355°
2026-05-07 23:34 45.44903 9.27666 357 ft 43 kts 355°
2026-05-07 23:34 45.45173 9.27635 358 ft 26 kts 356°
2026-05-07 23:34 45.45314 9.27666 359 ft 19 kts 22°
2026-05-07 23:35 45.45422 9.27745 360 ft 12 kts 33°
2026-05-07 23:35 45.45490 9.27815 361 ft 10 kts 10°
2026-05-07 23:35 45.45567 9.27816 361 ft 11 kts
2026-05-07 23:35 45.45649 9.27817 361 ft 12 kts
2026-05-07 23:36 45.45734 9.27819 362 ft 9 kts
2026-05-07 23:36 45.45771 9.27832 362 ft 2 kts 69°
2026-05-07 23:36 45.45773 9.27864 362 ft 3 kts 88°
2026-05-07 23:36 45.45773 9.27898 362 ft 1 kts 90°
2026-05-07 23:37 45.45773 9.27899 362 ft 0 kts 90°